Dewpoint
17 16 15 14 13 14 13 11 7 5 7 9 11 6 5 7 8 10 11 11 7 12 11 9 6 10 9 8 12 12 14 12 13 12 12 12 11 12 13 13 13 10 1
17 16 14 13 13 13 12 11 11 10 10 12 12 5 6 7 10 9 4 3 4 7 5 7 5 7 6 10 12 13 12 12 12 12 12 13 13 8 9 14 14 5 1
17 16 14 13 12 13 12 12 12 12 12 13 11 6 12 12 10 13 3 1 2 10 13 12 11 8 8 10 11 12 12 14 12 12 14 16 15 12 9 11 12 8 7
17 16 16 13 12 12 12 12 12 12 13 13 8 9 13 10 10 13 5 2 8 14 13 9 10 9 9 9 10 12 12 12 12 14 15 14 15 13 12 8 11 12 11
18 17 16 13 12 12 12 13 13 13 13 12 8 13 14 10 13 14 7 4 10 13 10 11 10 9 11 9 8 10 10 11 12 15 14 15 15 12 12 9 9 11 13
17 18 14 12 11 11 11 12 13 13 11 15 15 14 12 13 13 13 8 8 9 8 8 10 10 10 10 10 10 11 12 11 13 15 15 13 15 12 11 13 8 11 11
17 17 15 11 8 8 10 11 10 8 7 9 8 6 9 11 12 12 12 11 9 9 10 10 10 11 10 10 11 12 12 11 15 14 15 15 15 10 10 10 9 9 11
16 16 16 10 13 10 8 7 6 7 10 10 13 13 13 13 12 13 14 12 12 10 11 12 11 11 10 10 11 12 11 11 14 14 15 15 10 10 9 8 10 9 10
14 14 16 16 14 10 7 8 9 9 10 12 12 9 8 7 11 9 9 8 10 11 11 12 12 12 12 11 11 11 11 11 15 14 14 11 7 8 10 9 9 9 9
13 14 15 15 15 15 11 10 7 4 4 5 4 5 6 9 7 8 8 10 11 11 11 11 12 13 13 13 11 11 11 11 14 15 14 14 9 8 9 9 9 10 10
13 14 15 16 17 15 16 11 6 7 7 6 6 6 7 12 8 9 11 12 12 11 11 9 9 11 11 13 12 11 11 13 13 13 13 14 11 11 11 9 9 10 10
13 14 15 15 16 17 17 15 16 9 15 9 8 6 10 12 11 10 13 12 12 12 10 9 10 11 11 14 15 12 12 12 12 13 12 12 10 11 10 9 9 10 11
12 13 14 15 15 15 15 15 15 14 13 13 12 13 13 11 12 14 15 14 14 14 14 14 15 15 16 15 15 15 14 12 14 14 12 10 10 7 10 10 9 10 8
12 13 13 14 15 14 14 14 14 14 13 15 14 14 14 12 15 14 13 12 13 15 14 15 15 13 16 16 16 16 15 15 13 14 14 9 9 7 8 10 10 9 9
12 12 12 14 15 15 15 14 14 15 15 15 15 14 13 16 15 15 15 15 13 14 15 15 15 15 14 15 15 16 15 16 14 14 13 11 9 9 8 8 9 10 8
13 13 13 14 15 15 15 15 15 13 13 15 15 15 15 14 15 15 15 16 15 15 14 15 15 14 14 14 13 16 14 15 14 14 15 13 12 9 8 9 8 9 10
8 9 13 14 14 15 15 15 16 16 14 13 14 14 14 15 15 15 15 15 15 14 14 15 15 15 13 14 15 16 15 15 14 15 14 15 13 12 11 9 9 9 10
9 9 14 14 14 15 12 15 16 16 16 15 14 15 14 15 14 15 15 16 16 15 15 16 15 14 13 14 16 16 16 15 15 15 15 14 15 14 12 12 11 10 10
10 11 16 15 14 13 6 15 16 16 16 16 14 15 15 15 14 15 16 16 16 16 16 16 16 14 16 13 15 16 16 17 16 15 16 15 15 15 15 13 12 11 11
14 13 15 16 11 13 12 13 16 16 16 16 16 15 15 15 14 15 15 16 16 16 16 16 15 15 15 14 16 16 16 17 16 15 15 15 15 15 15 15 14 13 12
18 17 16 17 15 13 14 14 16 15 15 17 15 15 15 15 14 14 15 15 15 16 16 16 15 14 16 15 15 16 15 16 15 14 16 15 16 16 16 15 14 15 14
17 16 16 17 16 15 13 16 15 16 16 16 15 15 15 15 14 14 14 15 15 16 16 16 16 15 15 15 16 15 16 16 16 16 14 16 16 16 16 15 16 15 15
17 16 16 17 16 15 14 15 15 15 15 15 15 15 14 14 14 14 14 15 14 15 16 15 15 16 16 16 14 16 15 14 15 16 16 16 17 15 16 16 15 15 15
17 17 17 16 15 15 15 16 15 17 15 15 15 14 14 14 14 14 14 14 14 16 16 15 15 15 15 15 14 16 14 15 14 15 16 16 16 16 16 16 15 15 15
17 17 17 16 15 16 16 16 16 16 15 16 15 14 14 13 14 14 14 14 14 15 16 16 15 11 14 15 16 16 15 16 16 15 16 14 16 16 16 16 15 15 16
16 16 17 17 16 16 16 16 16 16 15 16 14 15 14 14 15 16 15 15 15 14 16 16 16 17 15 15 16 16 16 14 15 16 14 14 14 15 16 16 16 15 16
Wind_Speed
20 24 25 21 20 23 25 23 22 22 20 18 14 13 14 15 13 11 10 9 9 10 10 9 7 3 2 3 4 5 7 7 9 11 12 12 12 12 15 18 16 13 15
25 25 25 22 24 26 25 23 22 20 19 15 12 13 15 14 11 9 9 9 11 11 11 13 10 8 5 6 7 8 8 9 9 10 11 11 12 12 13 16 14 14 17
26 23 25 23 23 24 24 22 21 19 17 14 12 14 13 11 11 9 8 11 13 12 11 10 8 8 9 8 9 9 9 9 10 11 12 10 10 10 11 13 13 14 16
25 24 21 24 23 23 22 21 20 18 16 14 13 13 11 11 11 8 8 11 12 8 5 5 6 4 7 9 8 8 8 7 10 15 10 11 7 10 11 12 13 13 13
24 23 22 23 22 21 20 20 19 18 16 14 13 13 10 10 8 8 8 10 10 6 4 5 5 5 4 7 8 7 7 7 9 11 8 11 8 9 9 10 11 13 15
22 21 25 23 20 20 20 20 19 17 16 15 14 13 11 11 8 6 7 9 7 5 3 4 5 5 4 7 6 5 4 6 10 5 6 10 8 8 9 8 10 12 12
22 21 23 22 21 20 20 20 18 17 15 13 12 11 11 9 8 6 5 5 5 3 1 3 4 3 4 3 2 2 2 4 5 6 5 7 8 9 8 8 9 10 11
22 21 21 22 20 20 20 20 20 18 16 14 12 11 9 8 8 7 5 4 4 3 3 2 2 3 3 3 3 3 3 3 3 6 6 7 8 7 6 7 7 9 9
22 22 21 20 21 20 21 20 19 18 16 15 14 12 7 9 7 7 5 3 4 5 4 4 4 5 6 6 5 5 5 7 8 6 5 7 8 8 5 6 6 8 8
22 22 21 21 20 19 19 19 18 17 16 15 11 11 11 11 12 4 5 5 3 6 6 5 5 6 7 7 7 6 7 7 6 7 7 6 7 5 6 5 7 7 7
23 22 22 22 19 19 18 19 18 15 14 13 14 14 14 11 14 15 9 7 7 8 8 6 6 8 6 7 10 8 8 8 10 8 6 11 9 11 8 6 7 8 8
25 24 21 22 20 18 16 18 15 14 12 14 16 14 11 4 13 15 12 9 10 11 11 9 8 9 9 6 8 10 8 10 10 8 10 10 8 9 8 7 7 8 8
26 24 24 23 21 19 17 15 14 14 15 14 15 12 11 6 8 9 8 7 8 11 9 11 9 9 9 9 8 9 11 9 8 10 11 11 11 10 9 10 8 8 7
26 25 23 23 22 21 18 16 13 18 17 12 13 13 11 8 8 7 10 12 12 10 12 11 11 9 9 10 9 9 11 10 12 11 11 15 15 15 10 13 10 7 7
25 24 24 23 22 21 20 16 16 16 14 12 13 11 11 9 9 9 10 10 11 9 10 10 12 7 9 8 9 12 12 11 13 12 14 19 18 18 22 12 7 7 8
24 26 23 23 21 20 18 16 16 18 15 16 12 10 12 11 12 11 10 6 8 9 9 8 10 6 6 8 10 11 11 14 14 15 13 19 21 23 23 16 13 9 9
24 28 27 22 21 20 19 16 13 14 14 16 13 13 12 12 12 10 10 5 7 9 11 8 7 4 8 9 8 9 10 12 13 13 16 16 20 21 23 24 21 17 13
26 26 21 22 22 21 19 15 14 12 14 15 15 13 12 11 11 10 9 6 7 7 7 8 7 5 6 6 6 6 7 8 9 12 14 14 16 17 23 23 23 23 20
25 25 21 25 28 22 18 16 16 15 17 15 15 13 12 12 12 10 9 8 9 7 8 7 8 4 5 5 2 4 6 6 7 6 10 13 17 16 17 18 21 21 22
29 27 26 25 29 23 27 24 19 17 15 15 14 13 11 11 11 12 10 10 8 8 8 8 7 4 5 4 2 3 3 6 6 8 9 10 11 15 14 19 18 22 23
21 24 29 32 29 30 31 22 17 17 16 15 15 13 11 10 11 12 11 12 10 9 10 10 5 5 3 4 4 4 2 5 5 7 7 8 9 12 14 15 19 16 18
21 25 26 28 21 31 29 21 19 20 16 12 12 10 12 10 11 12 11 12 11 9 10 11 8 5 2 2 3 1 2 3 5 7 8 7 8 10 13 14 15 19 17
17 19 17 18 16 31 23 18 17 14 13 12 10 8 7 8 10 10 10 12 12 10 9 11 12 8 3 4 2 2 3 2 4 6 8 6 9 9 9 12 15 16 19
13 15 17 16 19 25 20 15 15 13 13 11 8 5 5 6 6 7 10 11 15 9 11 10 11 9 8 6 4 4 5 3 1 2 7 11 11 9 9 9 12 15 17
13 12 15 16 25 20 15 15 14 13 11 9 6 5 5 4 5 9 10 10 12 11 11 11 11 12 8 8 6 5 2 4 5 5 3 7 10 10 10 12 10 11 14
14 13 15 21 20 17 15 15 14 11 10 7 6 5 5 6 6 10 11 11 10 12 14 11 11 10 10 10 9 5 6 3 2 3 3 6 7 7 11 12 13 13 13
Wind_Direction
146 147 144 147 150 150 153 151 147 146 148 143 134 134 138 136 131 128 130 127 122 131 118 109 97 93 90 94 90 83 90 97 103 108 108 112 117 112 100 83 74 99 103
146 149 146 143 144 149 152 150 150 148 148 145 142 139 138 137 131 123 122 130 134 126 115 85 59 90 92 97 95 97 97 106 111 110 111 111 110 114 111 116 129 98 101
148 152 148 145 146 148 151 155 156 155 155 153 148 144 135 136 133 125 115 126 130 129 111 92 54 69 93 93 99 99 98 104 113 109 93 100 108 108 119 120 114 105 105
148 149 153 153 151 149 155 157 160 161 163 161 152 147 150 142 133 130 122 130 134 127 118 70 48 90 73 99 99 97 97 104 108 94 89 118 113 115 112 126 118 117 119
148 151 163 161 161 157 159 160 162 165 166 166 153 148 143 135 144 143 137 145 148 157 114 22 90 105 107 108 111 103 95 99 106 89 124 123 124 128 122 122 122 125 120
150 151 161 166 166 167 167 167 168 169 167 150 148 145 147 144 154 159 147 150 159 160 116 74 96 105 106 114 106 102 87 101 98 122 116 126 136 128 128 126 134 131 131
150 159 159 165 165 167 167 167 165 163 160 157 153 148 149 152 151 144 140 145 162 179 167 110 120 121 135 137 148 146 116 108 110 131 142 135 153 133 134 135 133 137 133
156 158 164 164 162 163 166 161 160 159 156 153 152 145 144 147 158 147 147 159 183 193 218 228 208 212 203 215 224 233 221 148 144 152 152 164 136 120 135 143 141 145 140
161 161 160 163 168 167 166 166 165 165 160 166 167 160 176 176 183 177 175 187 216 217 230 225 243 261 258 245 240 230 223 199 164 178 170 175 166 163 126 154 153 149 156
164 167 169 169 169 168 170 172 170 170 173 173 174 180 259 244 206 223 194 167 229 244 229 240 248 248 249 250 244 234 227 208 189 183 180 189 178 180 174 173 163 162 162
171 172 180 169 173 173 173 174 175 179 186 186 189 232 252 288 215 231 261 249 231 239 237 243 261 264 268 270 241 238 245 218 219 187 189 220 221 207 183 185 178 175 173
178 176 182 175 179 177 174 187 181 189 191 202 208 229 232 261 214 224 242 251 254 242 242 257 267 274 261 246 257 248 251 228 219 214 186 215 181 167 174 181 181 178 174
182 182 184 181 184 187 187 188 192 208 199 210 221 228 222 223 194 212 231 254 256 252 236 268 271 273 240 237 229 226 228 238 205 208 203 189 176 174 172 177 180 175 181
188 187 188 187 188 189 194 195 207 213 209 206 227 219 220 237 234 239 249 252 249 238 236 249 257 259 224 229 228 225 229 221 203 212 200 191 178 195 195 184 169 178 186
192 189 192 193 195 194 197 204 206 215 210 205 235 224 217 227 240 237 242 264 262 254 228 246 247 254 237 236 227 223 216 218 224 206 198 199 195 197 202 194 183 181 194
197 190 194 199 198 198 203 202 220 206 207 229 218 231 226 229 235 237 256 252 255 228 228 246 264 247 239 256 254 244 241 221 225 211 210 210 213 207 205 210 214 217 210
209 196 196 198 201 201 204 209 210 214 226 223 225 231 245 236 248 258 270 257 243 230 228 250 256 251 245 273 255 243 241 232 230 219 213 205 216 213 222 226 227 227 226
204 205 203 203 201 202 207 210 214 217 225 251 231 237 240 255 260 263 271 246 243 230 240 243 253 253 286 285 261 234 247 245 228 221 213 199 211 214 220 223 224 229 229
205 208 212 204 199 202 208 212 219 223 228 239 239 241 245 246 253 257 251 238 232 226 234 230 251 250 270 272 265 240 221 238 220 213 205 205 202 211 206 229 227 226 227
214 217 225 219 211 205 215 210 220 225 235 234 249 248 251 247 247 249 246 226 225 227 227 223 230 243 261 300 270 232 233 223 218 211 200 208 208 211 206 216 222 223 226
225 218 219 227 211 207 211 212 219 228 231 233 242 258 258 249 243 247 242 239 221 219 215 225 223 205 206 252 253 283 221 221 226 208 202 213 196 206 207 215 213 215 237
221 231 237 238 237 209 204 210 208 221 230 237 254 264 257 246 251 248 237 236 221 216 219 217 220 213 197 250 274 243 203 219 199 212 221 215 195 203 200 210 218 209 211
219 225 227 220 207 193 195 209 213 218 222 235 245 249 260 266 268 244 236 231 221 208 229 220 221 222 219 223 214 220 188 237 196 217 221 202 210 200 201 211 212 217 218
206 202 202 200 189 190 204 213 216 221 236 242 232 243 262 261 251 250 230 233 228 218 214 220 214 210 221 255 240 230 215 246 278 254 226 213 220 215 209 216 218 219 226
180 182 190 188 177 190 205 202 219 222 223 217 234 241 246 260 263 235 235 237 228 209 218 202 212 217 229 234 230 213 217 234 256 248 245 224 219 227 226 220 219 223 226
175 176 174 172 184 199 203 204 211 217 222 227 221 230 236 250 247 240 234 231 229 223 206 211 212 218 213 223 236 226 226 221 209 246 229 229 223 221 224 223 219 226 226
Height
1539 1540 1542 1545 1546 1549 1552 1555 1557 1559 1562 1563 1565 1566 1567 1568 1569 1571 1571 1571 1572 1572 1572 1573 1574 1574 1574 1574 1575 1575 1576 1576 1577 1577 1578 1580 1581 1582 1582 1584 1585 1584 1583
1540 1541 1543 1546 1548 1551 1554 1556 1559 1561 1563 1565 1567 1569 1569 1570 1572 1573 1573 1573 1573 1573 1574 1575 1577 1575 1575 1575 1575 1576 1577 1578 1579 1580 1581 1582 1583 1584 1585 1586 1587 1586 1587
1541 1544 1546 1548 1551 1553 1556 1558 1560 1563 1565 1567 1569 1571 1572 1573 1573 1574 1574 1574 1574 1575 1575 1575 1577 1577 1577 1577 1578 1578 1579 1580 1580 1582 1584 1585 1586 1586 1588 1588 1589 1589 1590
1542 1547 1549 1551 1553 1556 1558 1560 1562 1564 1566 1569 1570 1572 1574 1575 1576 1576 1576 1576 1576 1577 1577 1577 1577 1578 1579 1579 1579 1580 1581 1582 1582 1585 1588 1588 1590 1588 1590 1590 1591 1591 1592
1544 1548 1550 1553 1555 1558 1560 1562 1564 1566 1568 1570 1572 1573 1575 1576 1577 1578 1578 1578 1577 1578 1578 1578 1578 1579 1579 1580 1581 1581 1583 1584 1584 1587 1590 1589 1592 1589 1591 1592 1593 1593 1594
1546 1549 1550 1554 1557 1559 1561 1563 1565 1567 1569 1571 1573 1575 1575 1577 1578 1579 1579 1579 1579 1579 1579 1579 1579 1580 1580 1581 1582 1583 1584 1585 1586 1590 1591 1590 1593 1591 1592 1592 1594 1595 1596
1547 1550 1552 1555 1557 1560 1562 1564 1566 1568 1570 1573 1575 1576 1578 1579 1580 1580 1580 1581 1580 1580 1580 1581 1581 1582 1582 1582 1583 1584 1585 1586 1590 1592 1592 1593 1593 1592 1594 1594 1595 1597 1597
1550 1553 1554 1556 1559 1561 1564 1565 1567 1569 1571 1574 1575 1576 1579 1580 1580 1580 1580 1581 1581 1581 1581 1581 1581 1582 1583 1584 1584 1585 1586 1587 1591 1592 1593 1593 1592 1593 1595 1596 1596 1598 1599
1552 1554 1556 1559 1560 1562 1565 1567 1569 1570 1572 1574 1576 1577 1579 1579 1581 1580 1581 1581 1582 1582 1581 1582 1582 1582 1582 1584 1585 1586 1587 1588 1590 1592 1593 1591 1592 1594 1596 1597 1599 1600 1601
1553 1554 1557 1560 1562 1563 1565 1567 1570 1571 1572 1574 1576 1577 1578 1580 1581 1582 1581 1581 1582 1582 1582 1581 1582 1582 1583 1583 1584 1585 1586 1588 1590 1592 1593 1594 1593 1594 1596 1598 1600 1601 1602
1552 1554 1557 1561 1563 1565 1567 1568 1570 1572 1573 1575 1575 1577 1578 1577 1579 1580 1581 1581 1581 1582 1581 1581 1581 1582 1583 1583 1583 1584 1585 1588 1588 1590 1594 1592 1593 1593 1596 1598 1599 1601 1603
1550 1553 1557 1560 1564 1565 1569 1570 1572 1572 1575 1574 1575 1576 1577 1576 1576 1579 1580 1580 1580 1580 1580 1580 1581 1581 1581 1584 1583 1582 1583 1585 1587 1589 1590 1591 1592 1593 1596 1598 1600 1600 1602
1548 1552 1555 1559 1563 1567 1570 1572 1574 1573 1573 1575 1574 1575 1576 1576 1576 1578 1580 1580 1580 1578 1580 1581 1581 1580 1582 1583 1583 1582 1583 1583 1587 1589 1589 1590 1591 1592 1594 1597 1598 1600 1602
1547 1551 1555 1558 1560 1564 1568 1570 1573 1572 1571 1575 1574 1574 1574 1575 1575 1576 1576 1576 1576 1577 1578 1579 1579 1578 1579 1581 1581 1582 1582 1583 1583 1587 1588 1589 1591 1593 1594 1596 1598 1600 1602
1546 1550 1554 1556 1558 1562 1564 1567 1569 1569 1571 1575 1572 1573 1573 1576 1575 1575 1574 1573 1573 1573 1576 1576 1576 1575 1575 1577 1578 1580 1580 1582 1580 1585 1585 1588 1590 1592 1594 1596 1598 1599 1601
1544 1547 1552 1554 1557 1560 1563 1565 1566 1566 1569 1571 1572 1572 1571 1571 1571 1571 1571 1571 1572 1573 1574 1575 1573 1574 1576 1574 1576 1577 1577 1578 1577 1580 1583 1585 1586 1590 1593 1595 1597 1599 1601
1538 1542 1547 1552 1554 1555 1559 1563 1566 1567 1567 1568 1569 1568 1568 1568 1568 1568 1569 1569 1571 1570 1570 1572 1572 1573 1571 1575 1574 1574 1574 1575 1576 1577 1579 1583 1584 1588 1590 1593 1596 1598 1600
1536 1540 1545 1548 1550 1551 1553 1560 1565 1566 1568 1566 1565 1565 1566 1566 1566 1565 1567 1568 1570 1569 1570 1571 1570 1571 1571 1571 1572 1572 1573 1573 1573 1574 1576 1579 1582 1585 1587 1589 1593 1596 1599
1534 1536 1538 1544 1546 1547 1549 1557 1561 1564 1564 1565 1563 1564 1564 1564 1564 1564 1564 1566 1567 1568 1568 1569 1568 1569 1570 1569 1570 1570 1572 1572 1572 1573 1575 1577 1580 1582 1586 1587 1590 1593 1596
1530 1533 1537 1538 1540 1540 1549 1553 1557 1560 1561 1562 1562 1562 1562 1561 1562 1562 1562 1563 1565 1566 1567 1568 1567 1568 1569 1569 1571 1570 1570 1571 1571 1571 1573 1575 1576 1579 1582 1585 1587 1589 1592
1524 1528 1531 1530 1512 1539 1546 1550 1554 1557 1558 1558 1559 1559 1560 1559 1559 1559 1559 1560 1561 1564 1565 1566 1566 1566 1570 1570 1570 1569 1569 1570 1569 1570 1572 1573 1575 1577 1580 1582 1583 1588 1590
1519 1521 1525 1527 1532 1536 1544 1548 1551 1553 1554 1555 1557 1556 1557 1556 1555 1555 1556 1557 1559 1562 1562 1563 1565 1565 1569 1569 1568 1569 1569 1570 1569 1570 1570 1572 1574 1575 1578 1581 1582 1585 1588
1515 1517 1521 1526 1530 1534 1542 1545 1548 1550 1552 1552 1553 1554 1553 1553 1553 1553 1553 1555 1556 1558 1561 1561 1563 1566 1567 1568 1567 1569 1569 1569 1568 1569 1569 1573 1573 1574 1577 1579 1581 1583 1585
1514 1515 1519 1523 1528 1534 1539 1542 1545 1547 1549 1550 1550 1551 1550 1550 1549 1550 1550 1552 1554 1556 1559 1559 1561 1563 1565 1566 1566 1567 1567 1568 1568 1569 1569 1570 1573 1573 1576 1578 1579 1580 1582
1514 1516 1518 1521 1527 1534 1536 1540 1542 1544 1547 1548 1548 1548 1548 1548 1547 1548 1549 1550 1552 1553 1555 1557 1559 1559 1564 1565 1565 1565 1565 1567 1568 1567 1567 1568 1571 1573 1574 1575 1577 1579 1579
1513 1517 1519 1524 1528 1532 1535 1537 1540 1543 1544 1546 1546 1546 1547 1546 1546 1546 1546 1547 1549 1551 1553 1555 1556 1558 1560 1564 1565 1564 1565 1566 1566 1567 1566 1567 1569 1569 1571 1572 1574 1576 1577